Regional Weather Roundup
Issued by NWS Northern Indiana

Home | Current Version | Previous Version | Graphics & Text | Print | Product List | Glossary On
Versions: 1 2 3 4 5 6 7 8 9 10 11 12 13 14 15 16 17 18 19 20 21 22 23 24 25 26 27 28 29 30 31 32 33 34 35 36 37 38 39 40 41 42 43 44 45 46 47 48 49 50
000
ASUS43 KIWX 270300
RWRIWX

KIWX WEATHER ROUNDUP
NATIONAL WEATHER SERVICE NORTHERN INDIANA
1000 PM EST FRI DEC 26 2014

NOTE: "FAIR" INDICATES FEW OR NO CLOUDS BELOW 12,000 FEET WITH NO
SIGNIFICANT WEATHER AND/OR OBSTRUCTIONS TO VISIBILITY.

* THESE STATIONS ARE NOT UNDER NWS QUALITY CONTROL. THEY ALSO MAY NOT
  REPORT WEATHER SUCH AS PRECIPITATION OR FOG.

INZ001>027-270400-
NORTHERN INDIANA

CITY           SKY/WX    TMP DP  RH WIND       PRES   REMARKS
GARY*          CLOUDY    50  39  66 S12       30.05S
KNOX*          MOCLDY    44  37  75 S8        30.06S
SOUTH BEND     CLOUDY    48  40  73 S8        30.08S
GOSHEN         CLOUDY    44  40  85 S7        30.08S
WARSAW*        CLOUDY    43  39  87 S3        30.09S
ANGOLA*        CLOUDY    41  39  93 S3        30.09R
FORT WAYNE     CLOUDY    43  39  86 S8        30.12R
PERU/GRISSOM   CLOUDY    44  44  99 S6        30.09S

$$
INZ028>050-270400-
CENTRAL INDIANA

CITY           SKY/WX    TMP DP  RH WIND       PRES   REMARKS
LAFAYETTE      CLOUDY    47  41  80 S10       30.08S
KOKOMO*        CLOUDY    45  39  81 S8        30.10S
MUNCIE*        MOCLDY    45  38  76 MISG      30.12S
INDIANAPOLIS   CLOUDY    45  39  79 SE10      30.12R

$$
MIZ043>046-050>051-056>058-064>065-071>073-077>080-270400-
SOUTHWEST LOWER MICHIGAN

CITY           SKY/WX    TMP DP  RH WIND       PRES   REMARKS
BATTLE CREEK   CLOUDY    45  39  79 SW7       30.08R
BENTON HARBOR  CLOUDY    47  41  80 S5        30.06S
COLDWATER*     CLOUDY    43  38  83 S8        30.08S
HILLSDALE*     CLOUDY    43  41  93 S8        30.09R
HOLLAND        CLOUDY    42  37  82 SE6       30.05F
GRAND RAPIDS   CLOUDY    40  36  86 S7        30.06S
KALAMAZOO      CLOUDY    46  40  79 SW8       30.07S
STURGIS*       CLOUDY    43  39  87 S6        30.08R
THREE RIVERS*  CLOUDY    45  40  84 S7        30.08R

$$
OHZ001>008-015>018-024>025-270400-
NORTHWEST OHIO

CITY           SKY/WX    TMP DP  RH WIND       PRES   REMARKS
DEFIANCE       CLOUDY    42  38  85 S6        30.12S
FINDLAY        CLOUDY    38  33  82 S9        30.13S
TOLEDO EXPRESS MOCLDY    39  36  89 S5        30.12S
TOLEDO METCALF MOCLDY    38  33  82 S7        30.14R
LIMA           CLOUDY    42  34  73 S9        30.13S

$$
AND FOR LAKE MICHIGAN COASTAL AND OPEN LAKE BUOY OBSERVATIONS

STATION/POSITION TEMP    WIND        PRES    VSBY  WAVE
                 AIR SEA DIR/SP/G                  HT/PER
                 (F)     (DEG/KT/KT) (MB)    (MI)  (FT/S)
CALUMET HARBOR    48     180/  7/ 12 1016.0R
MICHIGAN CITY     48     160/  9/ 12   N/A
SAINT JOSEPH      49     170/  6/ 15 1018.6S

$$
&&


USA.gov is the U.S. government's official web portal to all federal, state and local government web resources and services.